Regional Weather Roundup
Issued by NWS

Home | Current Version | Previous Version | Graphics & Text | Print | Product List | Glossary On
Versions: 1 2 3 4 5 6 7 8 9 10 11 12 13 14 15 16 17 18 19 20 21 22 23 24 25 26 27 28 29 30 31 32 33 34 35 36 37 38 39 40 41 42 43 44 45 46 47 48 49 50
000
ASUS43 KBIS 210102
RWRND

NORTH DAKOTA REGIONAL WEATHER ROUNDUP
NATIONAL WEATHER SERVICE BISMARCK ND
700 PM CST SAT JAN 20 2018

NOTE: "FAIR" INDICATES FEW OR NO CLOUDS BELOW 12,000 FEET WITH NO
SIGNIFICANT WEATHER AND/OR OBSTRUCTIONS TO VISIBILITY.


NDZ001>003-009>011-017-210200-
NORTHWEST NORTH DAKOTA

CITY           SKY/WX    TMP DP  RH WIND       PRES   REMARKS
WILLISTON      CLEAR     28  19  69 W5        29.91R
MINOT          CLEAR     31  22  69 W6        29.86R
MINOT AFB      CLEAR     28  22  77 W12       29.86R WCI  18
$$

NDZ018>021-031>035-040>046-210200-
SOUTHWEST NORTH DAKOTA

CITY           SKY/WX    TMP DP  RH WIND       PRES   REMARKS
BISMARCK       PTCLDY    33  27  78 NW8       29.91R
DICKINSON      MOCLDY    28  20  71 W10       29.90R WCI  19
GARRISON         N/A     31  24  75 W9        29.89R
HETTINGER ARPT CLOUDY    29  23  78 NW9       29.93R
$$

NDZ004>008-012>016-024-026-027-054-210200-
NORTHEAST NORTH DAKOTA

CITY           SKY/WX    TMP DP  RH WIND       PRES   REMARKS
GRAND FORKS    FAIR      24  22  91 S8        29.87R WCI  15
GRND FRKS AFB  FAIR      29  23  79 S3        29.87R
DEVILS LAKE    FAIR      26  23  88 W7        29.87R WCI  18
$$

NDZ022-023-025-028>030-036>039-047>053-210200-
SOUTHEAST NORTH DAKOTA

CITY           SKY/WX    TMP DP  RH WIND       PRES   REMARKS
FARGO          FAIR      32  29  88 SW6       29.90R
JAMESTOWN      CLEAR     30  27  88 SW3       29.88R
$$





USA.gov is the U.S. government's official web portal to all federal, state and local government web resources and services.